Location: Earls Croome
(52.0667°N, 2.2000°W)
Time: 21:28:24
(UTC+00:00)

Cosmos 1833 Rocket - Pass Details

Date: 17 November 2019
Orbit: 832 x 840 km, 71.0° (Epoch: 10 December)

Event Time Altitude Azimuth Distance (km) Brightness Sun altitude
Exits shadow 04:40:57 58° 331° (NNW) 971 2.8 -25.9°
Drops below altitude 10° 04:46:02 10° 26° (NNE) 2,458 5.4 -25.1°
Sets 04:48:32 0° 31° (NNE) 3,397 6.3 -24.7°
